Total_Precipitation_Accumulation
0.25 0.29 0.38 0.53 0.46 0.32 0.19 0.07 0.05 0.07 0.08 0.06 0.06 0.07 0.09 0.13 0.21 0.34 0.32 0.29 0.26 0.33 0.56 0.87 1.10 1.14 1.20 1.10 0.92 0.80 0.79 0.85 0.94 1.03 1.08 1.19 1.22 1.12 1.10 1.10 1.21 1.31 1.48 1.42 1.29 1.11 0.92 0.79 0.63
0.25 0.39 0.60 0.70 0.47 0.26 0.13 0.08 0.06 0.07 0.08 0.09 0.09 0.10 0.12 0.17 0.18 0.22 0.32 0.41 0.36 0.41 0.65 0.85 1.12 1.15 1.18 1.12 0.95 0.86 0.82 0.90 0.99 1.03 1.09 1.19 1.21 1.17 1.21 1.17 1.17 1.27 1.39 1.29 1.12 1.04 0.82 0.65 0.55
0.33 0.54 0.83 0.73 0.44 0.26 0.13 0.07 0.07 0.07 0.09 0.11 0.15 0.16 0.21 0.27 0.24 0.29 0.38 0.50 0.56 0.60 0.78 1.03 1.22 1.22 1.23 1.16 1.06 1.01 0.97 1.01 1.07 1.12 1.20 1.24 1.29 1.28 1.31 1.21 1.11 1.11 1.11 1.04 0.93 0.83 0.71 0.57 0.51
0.51 0.84 0.95 0.71 0.38 0.18 0.12 0.09 0.09 0.10 0.10 0.12 0.20 0.29 0.36 0.33 0.30 0.36 0.46 0.54 0.70 0.80 0.96 1.25 1.47 1.42 1.36 1.28 1.19 1.19 1.15 1.15 1.14 1.17 1.28 1.32 1.39 1.38 1.30 1.13 0.99 0.90 0.89 0.95 0.90 0.76 0.66 0.56 0.51
0.80 1.08 0.95 0.62 0.31 0.16 0.10 0.11 0.11 0.13 0.14 0.14 0.23 0.38 0.51 0.45 0.44 0.53 0.60 0.66 0.82 0.93 1.12 1.44 1.68 1.68 1.54 1.45 1.39 1.37 1.34 1.35 1.32 1.27 1.34 1.41 1.43 1.40 1.28 1.04 0.86 0.74 0.78 0.89 0.91 0.86 0.72 0.63 0.54
1.14 1.14 0.89 0.55 0.26 0.16 0.11 0.12 0.14 0.17 0.17 0.20 0.28 0.46 0.65 0.67 0.72 0.83 0.86 0.86 1.00 1.08 1.27 1.59 1.85 1.78 1.68 1.68 1.66 1.63 1.60 1.55 1.49 1.46 1.55 1.55 1.49 1.37 1.21 1.04 0.88 0.76 0.75 0.84 0.86 0.89 0.80 0.66 0.59
1.19 1.00 0.70 0.43 0.26 0.20 0.16 0.14 0.17 0.20 0.23 0.26 0.29 0.56 0.79 0.98 1.10 1.19 1.26 1.28 1.29 1.38 1.57 1.79 1.90 1.80 1.71 1.68 1.72 1.76 1.79 1.80 1.70 1.59 1.60 1.56 1.48 1.34 1.18 0.97 0.92 0.87 0.83 0.84 0.86 0.79 0.81 0.72 0.61
1.19 1.14 0.69 0.42 0.31 0.25 0.21 0.20 0.19 0.23 0.28 0.30 0.38 0.64 0.89 1.10 1.39 1.65 1.70 1.87 1.86 1.88 1.95 2.06 2.16 2.05 1.86 1.70 1.77 1.81 1.82 1.78 1.77 1.64 1.41 1.33 1.27 1.20 1.15 0.89 0.86 0.87 0.86 0.79 0.80 0.81 0.80 0.70 0.57
1.28 1.32 0.76 0.41 0.34 0.29 0.28 0.31 0.26 0.23 0.33 0.44 0.48 0.63 0.92 1.28 1.70 2.18 2.26 2.40 2.45 2.39 2.42 2.37 2.42 2.37 2.28 2.08 1.95 1.97 1.85 1.75 1.73 1.62 1.36 1.25 1.33 1.22 1.00 0.74 0.71 0.75 0.78 0.78 0.77 0.75 0.74 0.59 0.50
1.40 1.15 0.60 0.33 0.33 0.36 0.36 0.40 0.38 0.35 0.42 0.53 0.66 0.72 1.13 1.66 2.06 2.35 2.47 2.42 2.60 2.58 2.64 2.61 2.62 2.60 2.59 2.30 2.14 2.16 1.99 1.79 1.65 1.50 1.44 1.33 1.31 1.29 1.04 0.85 0.73 0.76 0.74 0.76 0.84 0.83 0.70 0.55 0.46
1.12 0.77 0.50 0.40 0.39 0.43 0.46 0.47 0.48 0.52 0.53 0.55 0.64 0.77 1.18 1.76 2.30 2.45 2.67 2.66 2.71 2.90 2.90 2.84 2.80 2.83 2.83 2.67 2.30 2.19 2.03 1.97 1.85 1.60 1.53 1.47 1.46 1.41 1.24 1.10 0.97 0.93 0.80 0.78 0.83 0.86 0.68 0.55 0.50
0.93 0.61 0.57 0.56 0.49 0.56 0.58 0.56 0.54 0.56 0.56 0.54 0.65 0.78 1.13 1.60 2.09 2.49 2.70 2.84 2.71 2.96 3.09 3.00 2.94 2.91 2.94 2.88 2.60 2.31 2.11 1.96 1.86 1.68 1.58 1.60 1.56 1.44 1.29 1.14 1.06 0.99 0.87 0.83 0.81 0.75 0.65 0.55 0.51
0.83 0.64 0.63 0.65 0.63 0.68 0.72 0.66 0.63 0.58 0.56 0.62 0.86 1.07 1.25 1.51 1.84 2.37 2.75 2.86 2.80 2.82 3.14 3.20 3.13 3.02 2.90 2.92 2.81 2.50 2.22 1.95 1.88 1.88 1.74 1.58 1.51 1.40 1.34 1.20 1.17 1.10 0.96 0.91 0.86 0.79 0.74 0.67 0.59
0.70 0.65 0.71 0.76 0.79 0.79 0.89 0.76 0.73 0.69 0.66 0.84 1.05 1.19 1.40 1.62 1.83 2.26 2.63 2.85 2.76 2.68 2.98 3.22 3.37 3.30 3.09 2.86 2.74 2.60 2.40 2.23 2.16 2.04 1.90 1.80 1.67 1.56 1.42 1.29 1.22 1.16 1.03 0.93 0.92 0.86 0.84 0.78 0.72
0.80 0.87 0.89 0.90 0.86 0.84 0.97 0.99 0.77 0.74 0.82 0.92 1.04 1.22 1.41 1.66 2.00 2.32 2.49 2.72 2.90 2.79 2.94 3.16 3.42 3.60 3.47 3.19 2.97 2.81 2.61 2.45 2.35 2.25 2.22 2.12 1.93 1.77 1.67 1.47 1.31 1.23 1.20 1.17 1.13 1.08 0.96 0.86 0.78
1.26 1.23 1.10 0.90 0.85 0.85 1.12 1.14 0.78 0.73 0.86 0.93 1.05 1.24 1.40 1.59 1.91 2.24 2.49 2.73 3.06 3.13 3.16 3.33 3.38 3.60 3.69 3.58 3.30 3.01 2.82 2.64 2.43 2.25 2.26 2.25 2.11 1.97 1.89 1.74 1.54 1.45 1.43 1.38 1.29 1.18 1.11 0.95 0.83
1.43 1.20 0.89 0.79 0.79 0.89 1.06 1.02 0.87 0.79 0.81 0.92 1.05 1.21 1.41 1.51 1.70 2.00 2.33 2.71 3.06 3.25 3.40 3.60 3.59 3.50 3.66 3.82 3.71 3.32 3.05 2.84 2.66 2.43 2.29 2.34 2.32 2.18 2.01 1.82 1.71 1.71 1.67 1.53 1.43 1.28 1.27 1.21 1.01
0.93 0.75 0.63 0.65 0.67 0.77 0.88 0.85 0.89 0.92 0.87 0.85 0.97 1.12 1.33 1.39 1.46 1.69 2.05 2.57 3.02 3.30 3.41 3.55 3.69 3.75 3.84 4.00 4.11 3.86 3.48 3.16 2.95 2.76 2.54 2.45 2.54 2.56 2.37 2.02 1.86 1.88 1.88 1.79 1.65 1.55 1.44 1.37 1.35
0.74 0.67 0.58 0.47 0.50 0.69 0.77 0.82 0.94 1.01 0.89 0.86 0.96 1.06 1.18 1.24 1.33 1.50 1.79 2.22 2.67 3.17 3.28 3.30 3.42 3.62 3.78 3.91 3.93 3.80 3.47 3.30 3.15 2.93 2.79 2.72 2.62 2.65 2.73 2.45 2.18 2.11 2.06 2.02 1.97 1.93 1.84 1.64 1.59
0.84 0.79 0.66 0.56 0.56 0.77 0.81 0.89 0.89 0.95 0.96 0.90 0.90 0.96 1.01 1.15 1.31 1.46 1.69 1.98 2.24 2.72 3.07 3.13 3.21 3.31 3.40 3.46 3.67 3.79 3.68 3.41 3.30 3.23 3.03 2.84 2.76 2.72 2.78 2.83 2.61 2.31 2.23 2.22 2.22 2.13 1.98 1.90 1.86
0.88 0.70 0.66 0.77 0.82 0.92 0.95 1.05 0.94 0.92 0.93 0.85 0.83 0.88 0.89 1.02 1.26 1.40 1.55 1.87 2.07 2.43 2.85 3.00 3.12 3.26 3.23 3.40 3.86 4.10 4.13 3.82 3.53 3.32 3.24 3.07 2.89 2.84 2.78 2.75 2.79 2.65 2.46 2.34 2.35 2.42 2.39 2.23 2.12
0.94 0.55 0.61 0.85 1.20 1.33 1.07 1.33 1.06 0.98 0.91 0.85 0.82 0.88 0.89 0.95 1.15 1.26 1.35 1.68 1.94 2.15 2.49 2.72 3.01 3.27 3.39 3.47 3.69 3.77 3.61 3.43 3.13 3.04 3.05 3.11 3.10 2.92 2.84 2.83 2.82 2.79 2.69 2.51 2.46 2.53 2.59 2.61 2.50
0.82 0.61 0.72 0.95 1.30 1.41 0.96 1.18 1.07 0.95 0.96 0.95 0.91 0.98 1.00 0.97 1.10 1.27 1.36 1.49 1.65 1.96 2.25 2.44 2.62 2.91 3.19 3.34 3.49 3.65 3.49 3.23 3.13 3.13 3.12 3.09 3.13 3.06 2.95 2.88 2.87 2.87 2.80 2.72 2.66 2.64 2.65 2.66 2.63
0.86 1.04 1.12 1.20 1.72 1.82 0.93 0.99 1.05 1.02 1.01 0.92 0.90 0.97 0.99 1.00 1.10 1.23 1.30 1.41 1.50 1.74 2.08 2.25 2.40 2.57 2.86 3.08 3.26 3.47 3.38 3.13 2.89 2.89 2.96 2.92 2.92 2.88 2.83 2.86 2.81 2.77 2.75 2.66 2.62 2.63 2.62 2.63 2.56
1.31 1.86 2.33 2.28 2.17 1.44 0.71 0.90 1.14 0.98 0.88 0.89 0.95 0.94 0.95 0.96 1.03 1.14 1.24 1.41 1.50 1.66 1.82 1.94 2.03 2.15 2.41 2.67 2.84 3.04 3.15 3.12 2.91 2.66 2.68 2.68 2.63 2.56 2.51 2.59 2.66 2.66 2.62 2.63 2.60 2.56 2.47 2.50 2.52
1.30 1.56 1.91 1.72 1.18 0.82 0.70 0.95 1.08 0.86 0.84 0.86 0.90 0.91 0.89 0.92 1.00 1.05 1.13 1.30 1.46 1.60 1.63 1.66 1.73 1.85 1.96 2.10 2.29 2.45 2.54 2.73 2.79 2.66 2.49 2.47 2.40 2.33 2.34 2.39 2.48 2.57 2.61 2.58 2.60 2.56 2.43 2.38 2.35
1.25 1.29 1.12 1.45 1.03 0.87 0.86 0.89 0.90 0.74 0.78 0.79 0.80 0.84 0.88 0.92 0.92 0.99 1.11 1.22 1.33 1.45 1.50 1.52 1.59 1.66 1.69 1.81 1.93 2.14 2.17 2.20 2.32 2.37 2.38 2.36 2.25 2.19 2.24 2.37 2.38 2.37 2.43 2.43 2.43 2.42 2.29 2.20 2.16
1.06 1.10 1.36 1.92 1.66 1.18 0.83 0.80 1.02 0.86 0.84 0.86 0.83 0.85 0.90 0.90 0.91 1.02 1.16 1.25 1.31 1.41 1.47 1.44 1.48 1.55 1.60 1.65 1.77 1.91 1.99 2.05 2.08 2.09 2.08 2.12 2.10 2.01 2.02 2.12 2.24 2.23 2.23 2.30 2.36 2.25 2.11 2.04 1.92
1.02 1.22 1.46 1.56 1.36 1.32 1.02 1.02 1.03 0.86 0.81 0.83 0.80 0.83 0.86 0.87 0.91 1.05 1.17 1.30 1.34 1.36 1.41 1.43 1.38 1.41 1.48 1.53 1.58 1.68 1.75 1.83 1.94 1.94 1.89 1.88 1.90 1.86 1.82 1.89 1.95 1.97 1.95 1.99 2.09 2.09 2.04 2.00 1.91
0.87 0.98 1.23 1.72 1.32 1.04 1.09 1.11 0.89 0.75 0.71 0.75 0.76 0.76 0.77 0.80 0.87 0.99 1.08 1.11 1.19 1.28 1.38 1.46 1.38 1.38 1.35 1.44 1.52 1.54 1.59 1.64 1.74 1.77 1.79 1.75 1.76 1.77 1.74 1.76 1.83 1.83 1.81 1.80 1.83 1.83 1.84 1.88 1.88